Date String (YYYY-MM-DD hh:mm:ss) UTC,Instrument flags,Ambient pressure (hPa),Sample flow (lpm),Bypass flow (lpm),Sample temperature (°C),Ambient temperature (°C),ASC tube jacket temperature (°C),LED temperature (°C),Box temperature (°C),Sample RH (%),Span deviation,Mass concentration (μg/m³),Mass concentration (μg/m³),Mass concentration (μg/m³)
DateTimeUTC,F1_M11,P_M11,Q1_M11,Q2_M11,T1_M11,T2_M11,T3_M11,T4_M11,T5_M11,U1_M11,ZSPAN_M11,X2_M11,X0_M11,X1_M11
2022-11-11 07:00:00,,0827.6,4.99,0.00,22.7,21.9,00.0,31.4,24.6,08.7,0000.0,0004.06,0009.89,0003.65
2022-11-11 07:01:00,,0827.5,5.00,0.00,22.7,21.7,00.0,31.4,24.6,08.7,0000.0,0004.03,0009.79,0003.63
2022-11-11 07:02:00,,0827.6,5.01,0.00,22.7,21.5,00.0,31.4,24.5,08.7,0000.0,0003.98,0009.19,0003.61
2022-11-11 07:03:00,,0827.6,4.98,0.00,22.7,21.3,00.0,31.4,24.5,08.7,0000.0,0003.93,0009.07,0003.58
2022-11-11 07:04:00,,0827.6,5.01,0.00,22.6,21.2,00.0,31.4,24.5,08.7,0000.0,0003.92,0009.04,0003.57
2022-11-11 07:05:00,,0827.5,5.01,0.00,22.6,21.2,00.0,31.4,24.4,08.7,0000.0,0003.90,0008.94,0003.55
2022-11-11 07:06:00,,0827.5,4.99,0.00,22.6,21.0,00.0,31.4,24.4,08.8,0000.0,0003.88,0008.43,0003.53
2022-11-11 07:07:00,,0827.5,5.00,0.00,22.6,20.9,00.0,31.4,24.3,08.8,0000.0,0003.90,0007.99,0003.51
2022-11-11 07:08:00,,0827.6,5.01,0.00,22.5,20.9,00.0,31.4,24.3,08.8,0000.0,0003.91,0008.00,0003.50
2022-11-11 07:09:00,,0827.5,5.00,0.00,22.5,20.8,00.0,31.4,24.3,08.8,0000.0,0003.88,0007.90,0003.50
2022-11-11 07:10:00,,0827.5,5.00,0.00,22.5,20.8,00.0,31.4,24.2,08.8,0000.0,0003.88,0007.93,0003.49
2022-11-11 07:11:00,,0827.5,5.01,0.00,22.5,20.8,00.0,31.4,24.2,08.7,0000.0,0003.89,0008.12,0003.49
2022-11-11 07:12:00,,0827.6,5.00,0.00,22.4,20.8,00.0,31.4,24.2,08.7,0000.0,0003.86,0007.41,0003.48
2022-11-11 07:13:00,,0827.6,4.98,0.00,22.4,20.8,00.0,31.3,24.2,08.7,0000.0,0003.87,0007.70,0003.47
2022-11-11 07:14:00,,0827.5,5.01,0.00,22.5,21.5,00.0,31.3,24.3,08.7,0000.0,0003.90,0007.92,0003.48
2022-11-11 07:15:00,,0827.6,5.00,0.00,22.6,22.3,00.0,31.3,24.5,08.7,0000.0,0003.92,0007.94,0003.47
2022-11-11 07:16:00,,0827.5,4.99,0.00,22.6,22.2,00.0,31.3,24.6,08.7,0000.0,0003.91,0007.95,0003.46
2022-11-11 07:17:00,,0827.5,5.01,0.00,22.6,21.9,00.0,31.3,24.5,08.6,0000.0,0003.91,0007.96,0003.47
2022-11-11 07:18:00,,0827.5,5.00,0.00,22.6,21.6,00.0,31.3,24.5,08.7,0000.0,0003.87,0007.80,0003.47
2022-11-11 07:19:00,,0827.5,5.00,0.00,22.6,21.4,00.0,31.3,24.4,08.7,0000.0,0003.87,0007.74,0003.47
2022-11-11 07:20:00,,0827.5,5.00,0.00,22.6,21.2,00.0,31.3,24.4,08.7,0000.0,0003.91,0008.11,0003.47
2022-11-11 07:21:00,,0827.5,5.00,0.00,22.5,21.0,00.0,31.3,24.3,08.7,0000.0,0003.91,0008.42,0003.47
2022-11-11 07:22:00,,0827.5,5.01,0.00,22.5,20.9,00.0,31.3,24.3,08.7,0000.0,0003.89,0008.76,0003.47
2022-11-11 07:23:00,,0827.5,5.02,0.00,22.5,20.9,00.0,31.3,24.3,08.7,0000.0,0003.91,0008.56,0003.48
2022-11-11 07:24:00,,0827.7,5.00,0.00,22.4,20.8,00.0,31.3,24.2,08.7,0000.0,0003.91,0008.29,0003.49
2022-11-11 07:25:00,,0827.5,4.98,0.00,22.4,20.8,00.0,31.3,24.2,08.8,0000.0,0003.92,0008.22,0003.50
2022-11-11 07:26:00,,0827.5,5.02,0.00,22.4,20.8,00.0,31.3,24.2,08.8,0000.0,0003.87,0008.45,0003.48
2022-11-11 07:27:00,,0827.5,4.99,0.00,22.4,20.7,00.0,31.3,24.2,08.8,0000.0,0003.85,0008.86,0003.48
2022-11-11 07:28:00,,0827.5,5.00,0.00,22.4,20.7,00.0,31.3,24.1,08.8,0000.0,0003.84,0008.80,0003.48
2022-11-11 07:29:00,,0827.5,5.02,0.00,22.3,20.8,00.0,31.2,24.1,08.8,0000.0,0003.85,0008.79,0003.48
2022-11-11 07:30:00,,0827.6,4.99,0.00,22.4,21.5,00.0,31.2,24.3,08.8,0000.0,0003.86,0008.60,0003.47
2022-11-11 07:31:00,,0827.6,5.00,0.00,22.5,22.3,00.0,31.2,24.5,08.8,0000.0,0003.83,0008.25,0003.46
2022-11-11 07:32:00,,0827.6,5.01,0.00,22.6,22.2,00.0,31.2,24.6,08.7,0000.0,0003.82,0007.90,0003.44
2022-11-11 07:33:00,,0827.6,4.99,0.00,22.6,21.9,00.0,31.3,24.5,08.8,0000.0,0003.79,0007.20,0003.43
2022-11-11 07:34:00,,0827.6,5.00,0.00,22.6,21.7,00.0,31.3,24.5,08.8,0000.0,0003.79,0007.41,0003.42
2022-11-11 07:35:00,,0827.5,4.99,0.00,22.6,21.5,00.0,31.3,24.4,08.9,0000.0,0003.76,0008.23,0003.41
2022-11-11 07:36:00,,0827.5,4.99,0.00,22.6,21.4,00.0,31.3,24.4,09.0,0000.0,0003.74,0008.27,0003.40
2022-11-11 07:37:00,,0827.5,5.01,0.00,22.5,21.3,00.0,31.3,24.4,09.0,0000.0,0003.77,0008.05,0003.40
2022-11-11 07:38:00,,0827.5,5.01,0.00,22.5,21.3,00.0,31.3,24.3,08.9,0000.0,0003.80,0007.77,0003.39
2022-11-11 07:39:00,,0827.5,4.99,0.00,22.5,21.3,00.0,31.3,24.3,08.9,0000.0,0003.82,0007.81,0003.40
2022-11-11 07:40:00,,0827.5,5.00,0.00,22.5,21.2,00.0,31.3,24.3,08.9,0000.0,0003.83,0008.43,0003.41
2022-11-11 07:41:00,,0827.5,4.99,0.00,22.5,21.2,00.0,31.3,24.3,09.0,0000.0,0003.83,0009.04,0003.41
2022-11-11 07:42:00,,0827.6,5.01,0.00,22.5,21.2,00.0,31.3,24.3,09.0,0000.0,0003.84,0009.23,0003.42
2022-11-11 07:43:00,,0827.6,5.01,0.00,22.5,21.1,00.0,31.3,24.3,09.0,0000.0,0003.85,0009.59,0003.43
2022-11-11 07:44:00,,0827.6,4.99,0.00,22.5,21.2,00.0,31.3,24.3,09.0,0000.0,0003.85,0009.83,0003.43
2022-11-11 07:45:00,,0827.6,5.01,0.00,22.5,21.9,00.0,31.3,24.5,09.0,0000.0,0003.87,0010.13,0003.43
2022-11-11 07:46:00,,0827.6,4.99,0.00,22.6,22.6,00.0,31.3,24.7,08.9,0000.0,0003.91,0009.41,0003.43
2022-11-11 07:47:00,,0827.6,4.99,0.00,22.7,22.5,00.0,31.3,24.7,08.9,0000.0,0003.91,0010.44,0003.42
2022-11-11 07:48:00,,0827.5,5.00,0.00,22.7,22.2,00.0,31.3,24.6,08.8,0000.0,0003.92,0010.68,0003.43
2022-11-11 07:49:00,,0827.5,5.00,0.00,22.7,21.9,00.0,31.4,24.6,08.8,0000.0,0003.91,0011.00,0003.43
2022-11-11 07:50:00,,0827.6,4.99,0.00,22.7,21.7,00.0,31.4,24.6,08.8,0000.0,0003.90,0011.63,0003.42
2022-11-11 07:51:00,,0827.5,5.02,0.00,22.7,21.6,00.0,31.4,24.5,08.7,0000.0,0003.89,0011.36,0003.40
2022-11-11 07:52:00,,0827.5,4.99,0.00,22.7,21.5,00.0,31.4,24.5,08.8,0000.0,0003.89,0010.46,0003.39
2022-11-11 07:53:00,,0827.5,5.00,0.00,22.6,21.4,00.0,31.4,24.5,08.7,0000.0,0003.88,0010.41,0003.38
2022-11-11 07:54:00,,0827.6,5.02,0.00,22.6,21.4,00.0,31.4,24.4,08.7,0000.0,0003.86,0009.95,0003.37
2022-11-11 07:55:00,,0827.6,5.00,0.00,22.6,21.3,00.0,31.4,24.4,08.7,0000.0,0003.85,0009.90,0003.36
2022-11-11 07:56:00,,0827.5,4.99,0.00,22.6,21.3,00.0,31.4,24.4,08.7,0000.0,0003.83,0009.46,0003.36
2022-11-11 07:57:00,,0827.5,5.01,0.00,22.6,21.2,00.0,31.4,24.4,08.7,0000.0,0003.79,0009.58,0003.35
2022-11-11 07:58:00,,0827.4,4.99,0.00,22.6,21.2,00.0,31.4,24.4,08.7,0000.0,0003.76,0009.54,0003.35
2022-11-11 07:59:00,,0827.4,4.99,0.00,22.6,21.2,00.0,31.4,24.3,08.7,0000.0,0003.75,0009.67,0003.33
